TimeIST,TemperatureF,Dew PointF,Humidity,Sea Level PressureIn,VisibilityMPH,Wind Direction,Wind SpeedMPH,Gust SpeedMPH,PrecipitationIn,Events,Conditions,WindDirDegrees,DateUTC
12:00 AM,68.0,51.8,56,29.92,0.9,Variable,2.3,-,N/A,,Haze,0,2012-11-09 18:30:00
12:30 AM,66.2,51.8,60,29.89,0.9,Variable,2.3,-,N/A,,Smoke,0,2012-11-09 19:00:00
1:00 AM,64.4,50.0,59,29.89,0.9,East,3.5,-,N/A,,Smoke,100,2012-11-09 19:30:00
1:30 AM,64.4,50.0,59,29.89,0.9,East,4.6,-,N/A,,Smoke,100,2012-11-09 20:00:00
2:00 AM,64.4,50.0,59,29.89,0.9,Variable,2.3,-,N/A,,Smoke,0,2012-11-09 20:30:00
2:30 AM,64.4,50.0,59,29.89,0.9,East,3.5,-,N/A,,Smoke,100,2012-11-09 21:00:00
3:00 AM,62.6,50.0,63,29.89,0.9,East,4.6,-,N/A,,Smoke,90,2012-11-09 21:30:00
3:30 AM,62.6,50.0,63,29.89,0.9,Calm,Calm,-,N/A,,Smoke,0,2012-11-09 22:00:00
4:00 AM,62.6,50.0,63,29.89,0.7,Calm,Calm,-,N/A,,Smoke,0,2012-11-09 22:30:00
4:30 AM,62.6,51.8,68,29.89,0.7,NE,3.5,-,N/A,,Smoke,50,2012-11-09 23:00:00
5:00 AM,60.8,51.8,72,29.89,0.6,ESE,4.6,-,N/A,,Smoke,120,2012-11-09 23:30:00
5:30 AM,60.8,51.8,72,29.92,0.6,East,4.6,-,N/A,,Smoke,100,2012-11-10 00:00:00
6:00 AM,60.8,53.6,77,29.92,0.6,ESE,4.6,-,N/A,,Mist,120,2012-11-10 00:30:00
6:30 AM,60.8,53.6,77,29.92,0.6,SE,4.6,-,N/A,,Mist,130,2012-11-10 01:00:00
7:00 AM,60.8,53.6,77,29.95,0.6,ESE,4.6,-,N/A,,Mist,110,2012-11-10 01:30:00
7:30 AM,62.6,53.6,72,29.95,0.7,ESE,5.8,-,N/A,,Mist,110,2012-11-10 02:00:00
8:30 AM,69.8,50.0,49,29.98,0.9,SE,5.8,-,N/A,,Haze,130,2012-11-10 03:00:00
9:30 AM,73.4,50.0,44,30.01,0.9,SE,5.8,-,N/A,,Haze,130,2012-11-10 04:00:00
10:00 AM,77.0,51.8,41,30.01,1.1,SE,5.8,-,N/A,,Haze,130,2012-11-10 04:30:00
10:30 AM,77.0,48.2,36,30.01,1.1,SE,5.8,-,N/A,,Haze,130,2012-11-10 05:00:00
11:00 AM,77.0,48.2,36,29.98,1.1,ESE,5.8,-,N/A,,Haze,110,2012-11-10 05:30:00
11:30 AM,80.6,46.4,30,29.98,1.4,ESE,4.6,-,N/A,,Haze,120,2012-11-10 06:00:00
12:00 PM,84.2,48.2,29,29.98,1.6,Variable,3.5,-,N/A,,Haze,0,2012-11-10 06:30:00
1:00 PM,84.2,50.0,30,29.95,1.9,ESE,4.6,-,N/A,,Haze,120,2012-11-10 07:30:00
1:30 PM,84.2,50.0,30,29.92,1.9,ESE,4.6,-,N/A,,Haze,110,2012-11-10 08:00:00
2:00 PM,84.2,50.0,30,29.92,1.9,ESE,4.6,-,N/A,,Haze,110,2012-11-10 08:30:00
2:30 PM,86.0,48.2,27,29.92,2.2,WNW,4.6,-,N/A,,Haze,290,2012-11-10 09:00:00
3:00 PM,84.2,50.0,30,29.92,2.2,NE,4.6,-,N/A,,Haze,50,2012-11-10 09:30:00
3:30 PM,84.2,51.8,33,29.89,-9999.0,ENE,6.9,-,N/A,,Haze,70,2012-11-10 10:00:00
4:30 PM,80.6,51.8,37,29.89,1.5,SE,5.8,-,N/A,,Haze,140,2012-11-10 11:00:00
5:00 PM,78.8,48.2,34,29.92,1.5,SSW,5.8,-,N/A,,Haze,210,2012-11-10 11:30:00
5:30 PM,78.8,46.4,32,29.92,1.5,SSW,6.9,-,N/A,,Haze,210,2012-11-10 12:00:00
6:00 PM,77.0,46.4,34,29.92,1.5,South,4.6,-,N/A,,Haze,170,2012-11-10 12:30:00
6:30 PM,77.0,46.4,34,29.92,1.5,SSE,4.6,-,N/A,,Haze,150,2012-11-10 13:00:00
7:00 PM,75.2,46.4,36,29.95,1.5,WSW,5.8,-,N/A,,Haze,240,2012-11-10 13:30:00
7:30 PM,73.4,48.2,41,29.95,1.4,SW,4.6,-,N/A,,Haze,230,2012-11-10 14:00:00
8:00 PM,73.4,48.2,41,29.95,1.6,WSW,3.5,-,N/A,,Haze,250,2012-11-10 14:30:00
8:30 PM,73.4,48.2,41,29.95,1.6,North,3.5,-,N/A,,Haze,350,2012-11-10 15:00:00
9:00 PM,71.6,50.0,46,29.95,1.6,Calm,Calm,-,N/A,,Haze,0,2012-11-10 15:30:00
9:30 PM,71.6,50.0,46,29.98,1.6,Calm,Calm,-,N/A,,Haze,0,2012-11-10 16:00:00
10:00 PM,69.8,50.0,49,29.98,1.6,Calm,Calm,-,N/A,,Haze,0,2012-11-10 16:30:00
10:30 PM,68.0,50.0,52,29.98,1.6,Calm,Calm,-,N/A,,Haze,0,2012-11-10 17:00:00
11:00 PM,68.0,50.0,52,29.95,1.6,Calm,Calm,-,N/A,,Haze,0,2012-11-10 17:30:00
11:30 PM,68.0,50.0,52,29.95,1.4,Calm,Calm,-,N/A,,Smoke,0,2012-11-10 18:00:00